Time,TemperatureF,DewpointF,PressureIn,WindDirection,WindDirectionDegrees,WindSpeedMPH,WindSpeedGustMPH,Humidity,HourlyPrecipIn,Conditions,Clouds,dailyrainin,SolarRadiationWatts/m^2,SoftwareType,DateUTC
2013-04-17 00:02:00,44.0,9.0,-100.00,SW,214,7.0,16.0,23,0.00,,,0.00,0.000000,,2013-04-17 06:02:00,
2013-04-17 00:12:00,44.0,9.0,-100.00,SW,214,7.0,16.0,23,0.00,,,0.00,0.000000,,2013-04-17 06:12:00,
2013-04-17 00:22:00,42.0,12.0,-100.00,SW,221,6.0,15.0,29,0.00,,,0.00,0.000000,,2013-04-17 06:22:00,
2013-04-17 00:42:00,42.0,12.0,-100.00,SW,221,6.0,15.0,29,0.00,,,0.00,0.000000,,2013-04-17 06:42:00,
2013-04-17 00:52:00,42.0,12.0,-100.00,SW,221,6.0,15.0,29,0.00,,,0.00,0.000000,,2013-04-17 06:52:00,
2013-04-17 01:02:00,42.0,12.0,-100.00,SW,221,6.0,15.0,29,0.00,,,0.00,0.000000,,2013-04-17 07:02:00,
2013-04-17 01:12:00,42.0,12.0,-100.00,SW,221,6.0,15.0,29,0.00,,,0.00,0.000000,,2013-04-17 07:12:00,
2013-04-17 01:22:00,40.0,11.0,-100.00,SSW,199,6.0,12.0,30,0.00,,,0.00,0.000000,,2013-04-17 07:22:00,
2013-04-17 01:42:00,40.0,11.0,-100.00,SSW,199,6.0,12.0,30,0.00,,,0.00,0.000000,,2013-04-17 07:42:00,
2013-04-17 01:52:00,40.0,11.0,-100.00,SSW,199,6.0,12.0,30,0.00,,,0.00,0.000000,,2013-04-17 07:52:00,
2013-04-17 02:02:00,40.0,11.0,-100.00,SSW,199,6.0,12.0,30,0.00,,,0.00,0.000000,,2013-04-17 08:02:00,
2013-04-17 02:12:00,40.0,11.0,-100.00,SSW,199,6.0,12.0,30,0.00,,,0.00,0.000000,,2013-04-17 08:12:00,
2013-04-17 02:22:00,39.0,10.0,-100.00,SSW,197,7.0,16.0,30,0.00,,,0.00,0.000000,,2013-04-17 08:22:00,
2013-04-17 02:42:00,39.0,10.0,-100.00,SSW,197,7.0,16.0,30,0.00,,,0.00,0.000000,,2013-04-17 08:42:00,
2013-04-17 02:52:00,39.0,10.0,-100.00,SSW,197,7.0,16.0,30,0.00,,,0.00,0.000000,,2013-04-17 08:52:00,
2013-04-17 03:02:00,39.0,10.0,-100.00,SSW,197,7.0,16.0,30,0.00,,,0.00,0.000000,,2013-04-17 09:02:00,
2013-04-17 03:12:00,39.0,10.0,-100.00,SSW,197,7.0,16.0,30,0.00,,,0.00,0.000000,,2013-04-17 09:12:00,
2013-04-17 03:22:00,38.0,13.0,-100.00,SW,231,5.0,14.0,35,0.00,,,0.00,0.000000,,2013-04-17 09:22:00,
2013-04-17 03:42:00,38.0,13.0,-100.00,SW,231,5.0,14.0,35,0.00,,,0.00,0.000000,,2013-04-17 09:42:00,
2013-04-17 03:52:00,38.0,13.0,-100.00,SW,231,5.0,14.0,35,0.00,,,0.00,0.000000,,2013-04-17 09:52:00,
2013-04-17 04:02:00,38.0,13.0,-100.00,SW,231,5.0,14.0,35,0.00,,,0.00,0.000000,,2013-04-17 10:02:00,
2013-04-17 04:12:00,38.0,13.0,-100.00,SW,231,5.0,14.0,35,0.00,,,0.00,0.000000,,2013-04-17 10:12:00,
2013-04-17 04:22:00,36.0,18.0,-100.00,SW,219,4.0,16.0,48,0.00,,,0.00,0.000000,,2013-04-17 10:22:00,
2013-04-17 04:43:00,36.0,18.0,-100.00,SW,219,4.0,16.0,48,0.00,,,0.00,0.000000,,2013-04-17 10:43:00,
2013-04-17 04:53:00,36.0,18.0,-100.00,SW,219,4.0,16.0,48,0.00,,,0.00,0.000000,,2013-04-17 10:53:00,
2013-04-17 05:02:00,36.0,18.0,-100.00,SW,219,4.0,16.0,48,0.00,,,0.00,0.000000,,2013-04-17 11:02:00,
2013-04-17 05:12:00,36.0,18.0,-100.00,SW,219,4.0,16.0,48,0.00,,,0.00,0.000000,,2013-04-17 11:12:00,
2013-04-17 05:22:00,34.0,22.0,-100.00,WSW,254,2.0,9.0,60,0.00,,,0.00,0.000000,,2013-04-17 11:22:00,
2013-04-17 05:42:00,34.0,22.0,-100.00,WSW,254,2.0,9.0,60,0.00,,,0.00,0.000000,,2013-04-17 11:42:00,
2013-04-17 05:52:00,34.0,22.0,-100.00,WSW,254,2.0,9.0,60,0.00,,,0.00,0.000000,,2013-04-17 11:52:00,
2013-04-17 06:02:00,34.0,22.0,-100.00,WSW,254,2.0,9.0,60,0.00,,,0.00,0.000000,,2013-04-17 12:02:00,
2013-04-17 06:12:00,34.0,22.0,-100.00,WSW,254,2.0,9.0,60,0.00,,,0.00,0.000000,,2013-04-17 12:12:00,
2013-04-17 06:22:00,32.0,21.0,-100.00,SW,223,1.0,6.0,63,0.00,,,0.00,0.000000,,2013-04-17 12:22:00,
2013-04-17 06:42:00,32.0,21.0,-100.00,SW,223,1.0,6.0,63,0.00,,,0.00,0.000000,,2013-04-17 12:42:00,
2013-04-17 06:52:00,32.0,21.0,-100.00,SW,223,1.0,6.0,63,0.00,,,0.00,0.000000,,2013-04-17 12:52:00,
2013-04-17 07:02:00,32.0,21.0,-100.00,SW,223,1.0,6.0,63,0.00,,,0.00,0.000000,,2013-04-17 13:02:00,
2013-04-17 07:12:00,32.0,21.0,-100.00,SW,223,1.0,6.0,63,0.00,,,0.00,0.000000,,2013-04-17 13:12:00,
2013-04-17 07:22:00,34.0,23.0,-100.00,SW,218,3.0,6.0,65,0.00,,,0.00,38.000000,,2013-04-17 13:22:00,
2013-04-17 07:52:00,34.0,23.0,-100.00,SW,218,3.0,6.0,65,0.00,,,0.00,38.000000,,2013-04-17 13:52:00,
2013-04-17 08:12:00,34.0,23.0,-100.00,SW,218,3.0,6.0,65,0.00,,,0.00,38.000000,,2013-04-17 14:12:00,
2013-04-17 08:22:00,33.0,30.0,-100.00,SW,214,3.0,9.0,88,0.00,,,0.00,142.000000,,2013-04-17 14:22:00,
2013-04-17 08:43:00,33.0,30.0,-100.00,SW,214,3.0,9.0,88,0.00,,,0.00,142.000000,,2013-04-17 14:43:00,
2013-04-17 08:52:00,33.0,30.0,-100.00,SW,214,3.0,9.0,88,0.00,,,0.00,142.000000,,2013-04-17 14:52:00,
2013-04-17 09:02:00,33.0,30.0,-100.00,SW,214,3.0,9.0,88,0.00,,,0.00,142.000000,,2013-04-17 15:02:00,
2013-04-17 09:12:00,33.0,30.0,-100.00,SW,214,3.0,9.0,88,0.00,,,0.00,142.000000,,2013-04-17 15:12:00,
2013-04-17 09:22:00,38.0,12.0,-100.00,SW,221,10.0,18.0,34,0.00,,,0.00,542.000000,,2013-04-17 15:22:00,
2013-04-17 09:43:00,38.0,12.0,-100.00,SW,221,10.0,18.0,34,0.00,,,0.00,542.000000,,2013-04-17 15:43:00,
2013-04-17 09:53:00,38.0,12.0,-100.00,SW,221,10.0,18.0,34,0.00,,,0.00,542.000000,,2013-04-17 15:53:00,
2013-04-17 10:03:00,38.0,12.0,-100.00,SW,221,10.0,18.0,34,0.00,,,0.00,542.000000,,2013-04-17 16:03:00,
2013-04-17 10:12:00,38.0,12.0,-100.00,SW,221,10.0,18.0,34,0.00,,,0.00,542.000000,,2013-04-17 16:12:00,
2013-04-17 10:22:00,40.0,12.0,-100.00,SSW,201,10.0,20.0,31,0.00,,,0.00,792.000000,,2013-04-17 16:22:00,
2013-04-17 10:42:00,40.0,12.0,-100.00,SSW,201,10.0,20.0,31,0.00,,,0.00,792.000000,,2013-04-17 16:42:00,
2013-04-17 10:52:00,40.0,12.0,-100.00,SSW,201,10.0,20.0,31,0.00,,,0.00,792.000000,,2013-04-17 16:52:00,
2013-04-17 11:02:00,40.0,12.0,-100.00,SSW,201,10.0,20.0,31,0.00,,,0.00,792.000000,,2013-04-17 17:02:00,
2013-04-17 11:12:00,40.0,12.0,-100.00,SSW,201,10.0,20.0,31,0.00,,,0.00,792.000000,,2013-04-17 17:12:00,
2013-04-17 11:22:00,39.0,16.0,-100.00,SW,215,8.0,15.0,38,0.00,,,0.00,939.000000,,2013-04-17 17:22:00,
2013-04-17 11:42:00,39.0,16.0,-100.00,SW,215,8.0,15.0,38,0.00,,,0.00,939.000000,,2013-04-17 17:42:00,
2013-04-17 11:52:00,39.0,16.0,-100.00,SW,215,8.0,15.0,38,0.00,,,0.00,939.000000,,2013-04-17 17:52:00,
2013-04-17 12:02:00,39.0,16.0,-100.00,SW,215,8.0,15.0,38,0.00,,,0.00,939.000000,,2013-04-17 18:02:00,
2013-04-17 12:12:00,39.0,16.0,-100.00,SW,215,8.0,15.0,38,0.00,,,0.00,939.000000,,2013-04-17 18:12:00,
2013-04-17 12:22:00,38.0,16.0,-100.00,West,259,8.0,19.0,40,0.00,,,0.00,1028.000000,,2013-04-17 18:22:00,
2013-04-17 12:42:00,38.0,16.0,-100.00,West,259,8.0,19.0,40,0.00,,,0.00,1028.000000,,2013-04-17 18:42:00,
2013-04-17 12:52:00,38.0,16.0,-100.00,West,259,8.0,19.0,40,0.00,,,0.00,1028.000000,,2013-04-17 18:52:00,
2013-04-17 13:02:00,38.0,16.0,-100.00,West,259,8.0,19.0,40,0.00,,,0.00,1028.000000,,2013-04-17 19:02:00,
2013-04-17 13:12:00,38.0,16.0,-100.00,West,259,8.0,19.0,40,0.00,,,0.00,1028.000000,,2013-04-17 19:12:00,
2013-04-17 13:22:00,26.0,21.0,-100.00,West,264,7.0,16.0,82,0.00,,,0.00,520.000000,,2013-04-17 19:22:00,
2013-04-17 13:42:00,26.0,21.0,-100.00,West,264,7.0,16.0,82,0.00,,,0.00,520.000000,,2013-04-17 19:42:00,
2013-04-17 13:52:00,26.0,21.0,-100.00,West,264,7.0,16.0,82,0.00,,,0.00,520.000000,,2013-04-17 19:52:00,
2013-04-17 14:02:00,26.0,21.0,-100.00,West,264,7.0,16.0,82,0.00,,,0.00,520.000000,,2013-04-17 20:02:00,
2013-04-17 14:12:00,26.0,21.0,-100.00,West,264,7.0,16.0,82,0.00,,,0.00,520.000000,,2013-04-17 20:12:00,
2013-04-17 14:22:00,23.0,21.0,-100.00,WSW,238,9.0,13.0,91,0.00,,,0.00,193.000000,,2013-04-17 20:22:00,
2013-04-17 14:42:00,23.0,21.0,-100.00,WSW,238,9.0,13.0,91,0.00,,,0.00,193.000000,,2013-04-17 20:42:00,
2013-04-17 14:52:00,23.0,21.0,-100.00,WSW,238,9.0,13.0,91,0.00,,,0.00,193.000000,,2013-04-17 20:52:00,
2013-04-17 15:02:00,23.0,21.0,-100.00,WSW,238,9.0,13.0,91,0.00,,,0.00,193.000000,,2013-04-17 21:02:00,
2013-04-17 15:12:00,23.0,21.0,-100.00,WSW,238,9.0,13.0,91,0.00,,,0.00,193.000000,,2013-04-17 21:12:00,
2013-04-17 15:22:00,24.0,21.0,-100.00,WSW,240,4.0,10.0,88,0.00,,,0.00,192.000000,,2013-04-17 21:22:00,
2013-04-17 15:43:00,24.0,21.0,-100.00,WSW,240,4.0,10.0,88,0.00,,,0.00,192.000000,,2013-04-17 21:43:00,
2013-04-17 15:53:00,24.0,21.0,-100.00,WSW,240,4.0,10.0,88,0.00,,,0.00,192.000000,,2013-04-17 21:53:00,
2013-04-17 16:02:00,24.0,21.0,-100.00,WSW,240,4.0,10.0,88,0.00,,,0.00,192.000000,,2013-04-17 22:02:00,
2013-04-17 16:12:00,24.0,21.0,-100.00,WSW,240,4.0,10.0,88,0.00,,,0.00,192.000000,,2013-04-17 22:12:00,
2013-04-17 16:22:00,25.0,18.0,-100.00,WSW,246,8.0,12.0,75,0.00,,,0.00,281.000000,,2013-04-17 22:22:00,
2013-04-17 16:43:00,25.0,18.0,-100.00,WSW,246,8.0,12.0,75,0.00,,,0.00,281.000000,,2013-04-17 22:43:00,
2013-04-17 16:53:00,25.0,18.0,-100.00,WSW,246,8.0,12.0,75,0.00,,,0.00,281.000000,,2013-04-17 22:53:00,
2013-04-17 17:02:00,25.0,18.0,-100.00,WSW,246,8.0,12.0,75,0.00,,,0.00,281.000000,,2013-04-17 23:02:00,
2013-04-17 17:12:00,25.0,18.0,-100.00,WSW,246,8.0,12.0,75,0.00,,,0.00,281.000000,,2013-04-17 23:12:00,
2013-04-17 17:22:00,29.0,15.0,-100.00,West,267,5.0,11.0,55,0.00,,,0.00,312.000000,,2013-04-17 23:22:00,
2013-04-17 17:42:00,29.0,15.0,-100.00,West,267,5.0,11.0,55,0.00,,,0.00,312.000000,,2013-04-17 23:42:00,
2013-04-17 17:52:00,29.0,15.0,-100.00,West,267,5.0,11.0,55,0.00,,,0.00,312.000000,,2013-04-17 23:52:00,
2013-04-17 18:02:00,29.0,15.0,-100.00,West,267,5.0,11.0,55,0.00,,,0.00,312.000000,,2013-04-18 00:02:00,
2013-04-17 18:12:00,29.0,15.0,-100.00,West,267,5.0,11.0,55,0.00,,,0.00,312.000000,,2013-04-18 00:12:00,
2013-04-17 18:22:00,27.0,14.0,-100.00,WSW,240,9.0,13.0,57,0.00,,,0.00,375.000000,,2013-04-18 00:22:00,
2013-04-17 18:43:00,27.0,14.0,-100.00,WSW,240,9.0,13.0,57,0.00,,,0.00,375.000000,,2013-04-18 00:43:00,
2013-04-17 18:52:00,27.0,14.0,-100.00,WSW,240,9.0,13.0,57,0.00,,,0.00,375.000000,,2013-04-18 00:52:00,
2013-04-17 19:02:00,27.0,14.0,-100.00,WSW,240,9.0,13.0,57,0.00,,,0.00,375.000000,,2013-04-18 01:02:00,
2013-04-17 19:12:00,27.0,14.0,-100.00,WSW,240,9.0,13.0,57,0.00,,,0.00,375.000000,,2013-04-18 01:12:00,
2013-04-17 19:22:00,22.0,13.0,-100.00,WSW,256,7.0,13.0,69,0.00,,,0.00,65.000000,,2013-04-18 01:22:00,
2013-04-17 19:42:00,22.0,13.0,-100.00,WSW,256,7.0,13.0,69,0.00,,,0.00,65.000000,,2013-04-18 01:42:00,
2013-04-17 19:52:00,22.0,13.0,-100.00,WSW,256,7.0,13.0,69,0.00,,,0.00,65.000000,,2013-04-18 01:52:00,
2013-04-17 20:02:00,22.0,13.0,-100.00,WSW,256,7.0,13.0,69,0.00,,,0.00,65.000000,,2013-04-18 02:02:00,
2013-04-17 20:12:00,22.0,13.0,-100.00,WSW,256,7.0,13.0,69,0.00,,,0.00,65.000000,,2013-04-18 02:12:00,
2013-04-17 20:22:00,19.0,11.0,-100.00,WSW,258,5.0,13.0,70,0.00,,,0.00,5.000000,,2013-04-18 02:22:00,
2013-04-17 21:02:00,19.0,11.0,-100.00,WSW,258,5.0,13.0,70,0.00,,,0.00,5.000000,,2013-04-18 03:02:00,
2013-04-17 21:12:00,19.0,11.0,-100.00,WSW,258,5.0,13.0,70,0.00,,,0.00,5.000000,,2013-04-18 03:12:00,
2013-04-17 21:22:00,17.0,13.0,-100.00,WSW,241,7.0,13.0,83,0.00,,,0.00,0.000000,,2013-04-18 03:22:00,
2013-04-17 21:43:00,17.0,13.0,-100.00,WSW,241,7.0,13.0,83,0.00,,,0.00,0.000000,,2013-04-18 03:43:00,
2013-04-17 21:53:00,17.0,13.0,-100.00,WSW,241,7.0,13.0,83,0.00,,,0.00,0.000000,,2013-04-18 03:53:00,
2013-04-17 22:03:00,17.0,13.0,-100.00,WSW,241,7.0,13.0,83,0.00,,,0.00,0.000000,,2013-04-18 04:03:00,
2013-04-17 22:13:00,17.0,13.0,-100.00,WSW,241,7.0,13.0,83,0.00,,,0.00,0.000000,,2013-04-18 04:13:00,
2013-04-17 22:22:00,16.0,11.0,-100.00,WSW,248,7.0,11.0,82,0.00,,,0.00,0.000000,,2013-04-18 04:22:00,
2013-04-17 22:43:00,16.0,11.0,-100.00,WSW,248,7.0,11.0,82,0.00,,,0.00,0.000000,,2013-04-18 04:43:00,
2013-04-17 22:53:00,16.0,11.0,-100.00,WSW,248,7.0,11.0,82,0.00,,,0.00,0.000000,,2013-04-18 04:53:00,
2013-04-17 23:02:00,16.0,11.0,-100.00,WSW,248,7.0,11.0,82,0.00,,,0.00,0.000000,,2013-04-18 05:02:00,
2013-04-17 23:12:00,16.0,11.0,-100.00,WSW,248,7.0,11.0,82,0.00,,,0.00,0.000000,,2013-04-18 05:12:00,
2013-04-17 23:22:00,16.0,12.0,-100.00,WSW,245,8.0,12.0,83,0.00,,,0.00,0.000000,,2013-04-18 05:22:00,
2013-04-17 23:42:00,16.0,12.0,-100.00,WSW,245,8.0,12.0,83,0.00,,,0.00,0.000000,,2013-04-18 05:42:00,
2013-04-17 23:52:00,16.0,12.0,-100.00,WSW,245,8.0,12.0,83,0.00,,,0.00,0.000000,,2013-04-18 05:52:00,